Time,TemperatureF,DewpointF,PressureIn,WindDirection,WindDirectionDegrees,WindSpeedMPH,WindSpeedGustMPH,Humidity,HourlyPrecipIn,Conditions,Clouds,dailyrainin,SoftwareType,DateUTC
2013-03-09 00:00:00,35.5,24.9,30.41,NW,319,0.0,19.0,65,0.00,,,0.00,Wunderground v.1.13,2013-03-09 05:00:00,
2013-03-09 00:05:00,35.3,25.1,30.41,NW,319,0.0,19.0,66,0.00,,,0.00,Wunderground v.1.13,2013-03-09 05:05:00,
2013-03-09 00:10:00,35.3,25.1,30.41,NW,319,0.0,19.0,66,0.00,,,0.00,Wunderground v.1.13,2013-03-09 05:10:00,
2013-03-09 00:15:00,35.3,25.4,30.40,NW,319,0.0,19.0,67,0.00,,,0.00,Wunderground v.1.13,2013-03-09 05:15:00,
2013-03-09 00:20:00,35.2,25.3,30.40,NW,319,0.0,19.0,67,0.00,,,0.00,Wunderground v.1.13,2013-03-09 05:20:00,
2013-03-09 00:25:00,35.2,25.3,30.40,NW,319,0.0,19.0,67,0.00,,,0.00,Wunderground v.1.13,2013-03-09 05:25:00,
2013-03-09 00:30:00,35.0,25.1,30.39,NW,319,0.0,19.0,67,0.00,,,0.00,Wunderground v.1.13,2013-03-09 05:30:00,
2013-03-09 00:35:00,35.0,25.5,30.39,NW,319,0.0,19.0,68,0.00,,,0.00,Wunderground v.1.13,2013-03-09 05:35:00,
2013-03-09 00:40:00,34.9,25.4,30.39,NW,319,0.0,19.0,68,0.00,,,0.00,Wunderground v.1.13,2013-03-09 05:40:00,
2013-03-09 00:45:00,34.7,25.6,30.39,NW,319,0.0,19.0,69,0.00,,,0.00,Wunderground v.1.13,2013-03-09 05:45:00,
2013-03-09 00:50:00,34.7,25.9,30.39,NW,319,0.0,19.0,70,0.00,,,0.00,Wunderground v.1.13,2013-03-09 05:50:00,
2013-03-09 00:55:00,34.6,26.2,30.39,NW,319,0.0,19.0,71,0.00,,,0.00,Wunderground v.1.13,2013-03-09 05:55:00,
2013-03-09 01:05:00,34.3,26.2,30.39,NW,319,0.0,19.0,72,0.00,,,0.00,Wunderground v.1.13,2013-03-09 06:05:00,
2013-03-09 01:10:00,34.1,26.0,30.39,NW,319,0.0,19.0,72,0.00,,,0.00,Wunderground v.1.13,2013-03-09 06:10:00,
2013-03-09 01:15:00,34.1,26.0,30.38,NW,319,0.0,19.0,72,0.00,,,0.00,Wunderground v.1.13,2013-03-09 06:15:00,
2013-03-09 01:20:00,34.0,25.9,30.38,NW,319,0.0,19.0,72,0.00,,,0.00,Wunderground v.1.13,2013-03-09 06:20:00,
2013-03-09 01:25:00,33.8,25.7,30.38,NW,319,0.0,19.0,72,0.00,,,0.00,Wunderground v.1.13,2013-03-09 06:25:00,
2013-03-09 01:30:00,33.7,26.0,30.38,NW,319,0.0,19.0,73,0.00,,,0.00,Wunderground v.1.13,2013-03-09 06:30:00,
2013-03-09 01:40:00,33.5,26.4,30.38,NW,319,0.0,19.0,75,0.00,,,0.00,Wunderground v.1.13,2013-03-09 06:40:00,
2013-03-09 01:45:00,33.5,26.4,30.38,NW,319,0.0,19.0,75,0.00,,,0.00,Wunderground v.1.13,2013-03-09 06:45:00,
2013-03-09 01:50:00,33.5,26.4,30.38,NW,319,0.0,19.0,75,0.00,,,0.00,Wunderground v.1.13,2013-03-09 06:50:00,
2013-03-09 01:55:00,33.4,26.0,30.38,NW,319,0.0,19.0,74,0.00,,,0.00,Wunderground v.1.13,2013-03-09 06:55:00,
2013-03-09 02:00:00,33.4,26.0,30.37,NW,319,0.0,19.0,74,0.00,,,0.00,Wunderground v.1.13,2013-03-09 07:00:00,
2013-03-09 02:10:00,33.2,26.1,30.37,NW,319,0.0,19.0,75,0.00,,,0.00,Wunderground v.1.13,2013-03-09 07:10:00,
2013-03-09 02:15:00,33.2,26.5,30.36,NW,319,0.0,19.0,76,0.00,,,0.00,Wunderground v.1.13,2013-03-09 07:15:00,
2013-03-09 02:20:00,33.1,26.4,30.36,NW,319,0.0,19.0,76,0.00,,,0.00,Wunderground v.1.13,2013-03-09 07:20:00,
2013-03-09 02:25:00,33.1,26.4,30.36,NW,319,0.0,19.0,76,0.00,,,0.00,Wunderground v.1.13,2013-03-09 07:25:00,
2013-03-09 02:30:00,33.1,26.4,30.36,NW,319,0.0,19.0,76,0.00,,,0.00,Wunderground v.1.13,2013-03-09 07:30:00,
2013-03-09 02:35:00,32.9,26.2,30.36,NW,319,0.0,19.0,76,0.00,,,0.00,Wunderground v.1.13,2013-03-09 07:35:00,
2013-03-09 02:40:00,32.9,26.2,30.36,NW,319,0.0,19.0,76,0.00,,,0.00,Wunderground v.1.13,2013-03-09 07:40:00,
2013-03-09 02:45:00,32.8,26.1,30.35,NW,319,0.0,19.0,76,0.00,,,0.00,Wunderground v.1.13,2013-03-09 07:45:00,
2013-03-09 02:55:00,32.5,25.5,30.35,NW,319,0.0,19.0,75,0.00,,,0.00,Wunderground v.1.13,2013-03-09 07:55:00,
2013-03-09 03:00:00,32.4,25.7,30.35,NW,319,0.0,19.0,76,0.00,,,0.00,Wunderground v.1.13,2013-03-09 08:00:00,
2013-03-09 03:05:00,32.4,25.7,30.35,NW,319,0.0,19.0,76,0.00,,,0.00,Wunderground v.1.13,2013-03-09 08:05:00,
2013-03-09 03:10:00,32.4,25.7,30.35,NW,319,0.0,19.0,76,0.00,,,0.00,Wunderground v.1.13,2013-03-09 08:10:00,
2013-03-09 03:15:00,32.2,25.8,30.34,NW,319,0.0,19.0,77,0.00,,,0.00,Wunderground v.1.13,2013-03-09 08:15:00,
2013-03-09 03:20:00,32.2,25.8,30.34,NW,319,0.0,19.0,77,0.00,,,0.00,Wunderground v.1.13,2013-03-09 08:20:00,
2013-03-09 03:25:00,32.1,25.7,30.34,NW,319,0.0,19.0,77,0.00,,,0.00,Wunderground v.1.13,2013-03-09 08:25:00,
2013-03-09 03:30:00,31.9,25.5,30.34,North,350,0.0,19.0,77,0.00,,,0.00,Wunderground v.1.13,2013-03-09 08:30:00,
2013-03-09 03:35:00,31.8,25.4,30.34,North,350,0.0,19.0,77,0.00,,,0.00,Wunderground v.1.13,2013-03-09 08:35:00,
2013-03-09 03:45:00,31.6,25.5,30.34,North,350,0.0,19.0,78,0.00,,,0.00,Wunderground v.1.13,2013-03-09 08:45:00,
2013-03-09 03:50:00,31.6,25.8,30.34,North,350,0.0,19.0,79,0.00,,,0.00,Wunderground v.1.13,2013-03-09 08:50:00,
2013-03-09 03:55:00,31.6,25.8,30.34,North,350,0.0,19.0,79,0.00,,,0.00,Wunderground v.1.13,2013-03-09 08:55:00,
2013-03-09 04:00:00,31.8,26.0,30.34,North,350,0.0,19.0,79,0.00,,,0.00,Wunderground v.1.13,2013-03-09 09:00:00,
2013-03-09 04:05:00,31.6,25.8,30.34,North,350,0.0,19.0,79,0.00,,,0.00,Wunderground v.1.13,2013-03-09 09:05:00,
2013-03-09 04:10:00,31.6,25.8,30.34,North,350,0.0,19.0,79,0.00,,,0.00,Wunderground v.1.13,2013-03-09 09:10:00,
2013-03-09 04:20:00,31.5,25.7,30.34,North,350,0.0,19.0,79,0.00,,,0.00,Wunderground v.1.13,2013-03-09 09:20:00,
2013-03-09 04:25:00,31.3,25.5,30.34,North,350,0.0,19.0,79,0.00,,,0.00,Wunderground v.1.13,2013-03-09 09:25:00,
2013-03-09 04:30:00,31.3,25.5,30.34,North,350,0.0,19.0,79,0.00,,,0.00,Wunderground v.1.13,2013-03-09 09:30:00,
2013-03-09 04:35:00,31.2,25.4,30.34,North,350,0.0,19.0,79,0.00,,,0.00,Wunderground v.1.13,2013-03-09 09:35:00,
2013-03-09 04:40:00,31.3,25.5,30.34,North,350,0.0,19.0,79,0.00,,,0.00,Wunderground v.1.13,2013-03-09 09:40:00,
2013-03-09 04:50:00,31.5,25.7,30.34,North,350,0.0,19.0,79,0.00,,,0.00,Wunderground v.1.13,2013-03-09 09:50:00,
2013-03-09 04:55:00,31.5,25.7,30.34,North,350,0.0,19.0,79,0.00,,,0.00,Wunderground v.1.13,2013-03-09 09:55:00,
2013-03-09 05:00:00,31.5,25.7,30.33,North,350,0.0,19.0,79,0.00,,,0.00,Wunderground v.1.13,2013-03-09 10:00:00,
2013-03-09 05:05:00,31.3,25.5,30.33,North,350,0.0,19.0,79,0.00,,,0.00,Wunderground v.1.13,2013-03-09 10:05:00,
2013-03-09 05:10:00,31.3,25.5,30.33,North,350,0.0,19.0,79,0.00,,,0.00,Wunderground v.1.13,2013-03-09 10:10:00,
2013-03-09 05:15:00,31.3,25.5,30.34,North,350,0.0,19.0,79,0.00,,,0.00,Wunderground v.1.13,2013-03-09 10:15:00,
2013-03-09 05:25:00,31.2,25.4,30.34,North,350,0.0,19.0,79,0.00,,,0.00,Wunderground v.1.13,2013-03-09 10:25:00,
2013-03-09 05:30:00,31.0,25.2,30.34,North,350,0.0,19.0,79,0.00,,,0.00,Wunderground v.1.13,2013-03-09 10:30:00,
2013-03-09 05:35:00,30.9,25.2,30.34,North,350,0.0,19.0,79,0.00,,,0.00,Wunderground v.1.13,2013-03-09 10:35:00,
2013-03-09 05:40:00,30.9,25.2,30.34,North,350,0.0,19.0,79,0.00,,,0.00,Wunderground v.1.13,2013-03-09 10:40:00,
2013-03-09 05:45:00,30.9,25.5,30.34,North,350,0.0,19.0,80,0.00,,,0.00,Wunderground v.1.13,2013-03-09 10:45:00,
2013-03-09 05:50:00,31.0,25.9,30.34,North,350,0.0,19.0,81,0.00,,,0.00,Wunderground v.1.13,2013-03-09 10:50:00,
2013-03-09 05:55:00,31.0,25.9,30.34,North,350,0.0,19.0,81,0.00,,,0.00,Wunderground v.1.13,2013-03-09 10:55:00,
2013-03-09 06:00:00,30.9,25.8,30.34,North,350,0.0,19.0,81,0.00,,,0.00,Wunderground v.1.13,2013-03-09 11:00:00,
2013-03-09 06:05:00,31.0,25.9,30.34,North,350,0.0,19.0,81,0.00,,,0.00,Wunderground v.1.13,2013-03-09 11:05:00,
2013-03-09 06:10:00,31.0,25.9,30.34,North,350,0.0,19.0,81,0.00,,,0.00,Wunderground v.1.13,2013-03-09 11:10:00,
2013-03-09 06:15:00,31.2,26.3,30.33,North,350,0.0,19.0,82,0.00,,,0.00,Wunderground v.1.13,2013-03-09 11:15:00,
2013-03-09 06:25:00,31.3,26.1,30.33,North,349,0.0,19.0,81,0.00,,,0.00,Wunderground v.1.13,2013-03-09 11:25:00,
2013-03-09 06:30:00,31.5,26.3,30.34,North,349,0.0,19.0,81,0.00,,,0.00,Wunderground v.1.13,2013-03-09 11:30:00,
2013-03-09 06:35:00,31.5,26.3,30.34,North,349,0.0,19.0,81,0.00,,,0.00,Wunderground v.1.13,2013-03-09 11:35:00,
2013-03-09 06:40:00,31.5,26.0,30.34,North,349,0.0,19.0,80,0.00,,,0.00,Wunderground v.1.13,2013-03-09 11:40:00,
2013-03-09 06:45:00,31.5,26.0,30.33,North,349,0.0,19.0,80,0.00,,,0.00,Wunderground v.1.13,2013-03-09 11:45:00,
2013-03-09 06:50:00,31.5,26.0,30.33,North,349,0.0,19.0,80,0.00,,,0.00,Wunderground v.1.13,2013-03-09 11:50:00,
2013-03-09 07:00:00,31.5,25.7,30.32,North,349,0.0,19.0,79,0.00,,,0.00,Wunderground v.1.13,2013-03-09 12:00:00,
2013-03-09 07:05:00,31.5,25.7,30.32,North,349,0.0,19.0,79,0.00,,,0.00,Wunderground v.1.13,2013-03-09 12:05:00,
2013-03-09 07:10:00,31.6,25.8,30.32,North,349,0.0,19.0,79,0.00,,,0.00,Wunderground v.1.13,2013-03-09 12:10:00,
2013-03-09 07:15:00,31.6,25.8,30.32,North,349,0.0,19.0,79,0.00,,,0.00,Wunderground v.1.13,2013-03-09 12:15:00,
2013-03-09 07:20:00,31.6,25.8,30.32,North,349,0.0,19.0,79,0.00,,,0.00,Wunderground v.1.13,2013-03-09 12:20:00,
2013-03-09 07:30:00,31.8,25.7,30.32,North,349,0.0,19.0,78,0.00,,,0.00,Wunderground v.1.13,2013-03-09 12:30:00,
2013-03-09 07:35:00,31.9,25.8,30.32,North,349,0.0,19.0,78,0.00,,,0.00,Wunderground v.1.13,2013-03-09 12:35:00,
2013-03-09 07:40:00,32.1,26.0,30.32,North,349,0.0,19.0,78,0.00,,,0.00,Wunderground v.1.13,2013-03-09 12:40:00,
2013-03-09 07:45:00,32.4,26.3,30.32,North,349,0.0,19.0,78,0.00,,,0.00,Wunderground v.1.13,2013-03-09 12:45:00,
2013-03-09 07:50:00,32.7,26.3,30.32,North,349,0.0,19.0,77,0.00,,,0.00,Wunderground v.1.13,2013-03-09 12:50:00,
2013-03-09 07:55:00,32.9,26.5,30.32,North,349,0.0,19.0,77,0.00,,,0.00,Wunderground v.1.13,2013-03-09 12:55:00,
2013-03-09 08:05:00,33.7,26.9,30.32,North,349,0.0,19.0,76,0.00,,,0.00,Wunderground v.1.13,2013-03-09 13:05:00,
2013-03-09 08:10:00,34.0,26.9,30.32,North,349,0.0,19.0,75,0.00,,,0.00,Wunderground v.1.13,2013-03-09 13:10:00,
2013-03-09 08:15:00,34.3,26.9,30.32,North,349,0.0,19.0,74,0.00,,,0.00,Wunderground v.1.13,2013-03-09 13:15:00,
2013-03-09 08:20:00,34.7,27.3,30.32,North,349,0.0,19.0,74,0.00,,,0.00,Wunderground v.1.13,2013-03-09 13:20:00,
2013-03-09 08:25:00,34.9,27.1,30.32,North,349,0.0,19.0,73,0.00,,,0.00,Wunderground v.1.13,2013-03-09 13:25:00,
2013-03-09 08:30:00,35.0,26.9,30.33,North,349,0.0,19.0,72,0.00,,,0.00,Wunderground v.1.13,2013-03-09 13:30:00,
2013-03-09 08:35:00,35.3,27.2,30.33,North,349,0.0,19.0,72,0.00,,,0.00,Wunderground v.1.13,2013-03-09 13:35:00,
2013-03-09 08:40:00,35.6,26.8,30.33,NE,55,0.0,19.0,70,0.00,,,0.00,Wunderground v.1.13,2013-03-09 13:40:00,
2013-03-09 08:45:00,36.0,26.5,30.33,NE,55,0.0,19.0,68,0.00,,,0.00,Wunderground v.1.13,2013-03-09 13:45:00,
2013-03-09 08:50:00,36.5,26.6,30.33,NE,55,0.0,19.0,67,0.00,,,0.00,Wunderground v.1.13,2013-03-09 13:50:00,
2013-03-09 08:55:00,36.9,26.2,30.33,NE,35,1.0,19.0,65,0.00,,,0.00,Wunderground v.1.13,2013-03-09 13:55:00,
2013-03-09 09:05:00,37.6,26.1,30.32,NE,35,1.0,19.0,63,0.00,,,0.00,Wunderground v.1.13,2013-03-09 14:05:00,
2013-03-09 09:10:00,37.9,26.4,30.32,NNW,346,1.0,19.0,63,0.00,,,0.00,Wunderground v.1.13,2013-03-09 14:10:00,
2013-03-09 09:15:00,38.2,25.9,30.32,North,353,1.0,19.0,61,0.00,,,0.00,Wunderground v.1.13,2013-03-09 14:15:00,
2013-03-09 09:20:00,38.5,26.2,30.32,North,0,2.0,2.0,61,0.00,,,0.00,Wunderground v.1.13,2013-03-09 14:20:00,
2013-03-09 09:25:00,38.6,26.3,30.32,North,6,1.0,1.0,61,0.00,,,0.00,Wunderground v.1.13,2013-03-09 14:25:00,
2013-03-09 09:30:00,38.8,25.7,30.32,East,79,1.0,19.0,59,0.00,,,0.00,Wunderground v.1.13,2013-03-09 14:30:00,
2013-03-09 09:40:00,39.1,26.0,30.32,ENE,78,0.0,19.0,59,0.00,,,0.00,Wunderground v.1.13,2013-03-09 14:40:00,
2013-03-09 09:45:00,39.2,26.1,30.32,East,92,0.0,19.0,59,0.00,,,0.00,Wunderground v.1.13,2013-03-09 14:45:00,
2013-03-09 09:50:00,39.3,26.2,30.32,East,92,0.0,19.0,59,0.00,,,0.00,Wunderground v.1.13,2013-03-09 14:50:00,
2013-03-09 09:55:00,39.5,26.8,30.32,East,92,0.0,19.0,60,0.00,,,0.00,Wunderground v.1.13,2013-03-09 14:55:00,
2013-03-09 10:00:00,39.5,26.3,30.32,East,97,0.0,19.0,59,0.00,,,0.00,Wunderground v.1.13,2013-03-09 15:00:00,
2013-03-09 10:10:00,39.9,26.7,30.32,East,90,0.0,19.0,59,0.00,,,0.00,Wunderground v.1.13,2013-03-09 15:10:00,
2013-03-09 10:15:00,40.2,27.0,30.31,East,90,0.0,19.0,59,0.00,,,0.00,Wunderground v.1.13,2013-03-09 15:15:00,
2013-03-09 10:20:00,40.5,27.3,30.31,East,90,0.0,19.0,59,0.00,,,0.00,Wunderground v.1.13,2013-03-09 15:20:00,
2013-03-09 10:25:00,40.8,27.2,30.31,ESE,110,0.0,19.0,58,0.00,,,0.00,Wunderground v.1.13,2013-03-09 15:25:00,
2013-03-09 10:30:00,40.9,27.2,30.31,ESE,110,1.0,1.0,58,0.00,,,0.00,Wunderground v.1.13,2013-03-09 15:30:00,
2013-03-09 10:35:00,41.1,27.4,30.31,ESE,110,0.0,19.0,58,0.00,,,0.00,Wunderground v.1.13,2013-03-09 15:35:00,
2013-03-09 10:45:00,41.9,27.8,30.31,ESE,110,0.0,19.0,57,0.00,,,0.00,Wunderground v.1.13,2013-03-09 15:45:00,
2013-03-09 10:50:00,42.2,28.0,30.31,ESE,110,0.0,19.0,57,0.00,,,0.00,Wunderground v.1.13,2013-03-09 15:50:00,
2013-03-09 10:55:00,42.6,28.4,30.31,ESE,110,0.0,19.0,57,0.00,,,0.00,Wunderground v.1.13,2013-03-09 15:55:00,
2013-03-09 11:00:00,42.9,29.1,30.30,SE,131,0.0,19.0,58,0.00,,,0.00,Wunderground v.1.13,2013-03-09 16:00:00,
2013-03-09 11:05:00,43.3,28.2,30.30,North,357,0.0,19.0,55,0.00,,,0.00,Wunderground v.1.13,2013-03-09 16:05:00,
2013-03-09 11:15:00,44.5,27.0,30.30,NNE,23,2.0,19.0,50,0.00,,,0.00,Wunderground v.1.13,2013-03-09 16:15:00,
2013-03-09 11:20:00,45.1,26.6,30.30,North,354,2.0,19.0,48,0.00,,,0.00,Wunderground v.1.13,2013-03-09 16:20:00,
2013-03-09 11:25:00,45.5,26.9,30.30,NNE,21,3.0,3.0,48,0.00,,,0.00,Wunderground v.1.13,2013-03-09 16:25:00,
2013-03-09 11:30:00,46.4,27.2,30.29,NNE,21,3.0,19.0,47,0.00,,,0.00,Wunderground v.1.13,2013-03-09 16:30:00,
2013-03-09 11:35:00,47.1,26.8,30.29,NW,319,2.0,19.0,45,0.00,,,0.00,Wunderground v.1.13,2013-03-09 16:35:00,
2013-03-09 11:40:00,47.0,26.7,30.29,North,359,4.0,19.0,45,0.00,,,0.00,Wunderground v.1.13,2013-03-09 16:40:00,
2013-03-09 11:45:00,46.8,26.6,30.27,NNW,333,5.0,19.0,45,0.00,,,0.00,Wunderground v.1.13,2013-03-09 16:45:00,
2013-03-09 11:50:00,47.1,26.8,30.27,North,349,4.0,4.0,45,0.00,,,0.00,Wunderground v.1.13,2013-03-09 16:50:00,
2013-03-09 11:55:00,47.9,27.6,30.27,NE,35,2.0,2.0,45,0.00,,,0.00,Wunderground v.1.13,2013-03-09 16:55:00,
2013-03-09 12:00:00,48.6,26.5,30.27,North,1,1.0,1.0,42,0.00,,,0.00,Wunderground v.1.13,2013-03-09 17:00:00,
2013-03-09 12:05:00,49.2,26.5,30.27,ESE,102,1.0,1.0,41,0.00,,,0.00,Wunderground v.1.13,2013-03-09 17:05:00,
2013-03-09 12:10:00,49.6,26.8,30.27,NNW,342,2.0,2.0,41,0.00,,,0.00,Wunderground v.1.13,2013-03-09 17:10:00,
2013-03-09 12:20:00,50.8,26.7,30.26,NNW,330,2.0,19.0,39,0.00,,,0.00,Wunderground v.1.13,2013-03-09 17:20:00,
2013-03-09 12:25:00,50.7,27.2,30.26,North,350,3.0,3.0,40,0.00,,,0.00,Wunderground v.1.13,2013-03-09 17:25:00,
2013-03-09 12:30:00,50.5,27.7,30.25,North,357,4.0,4.0,41,0.00,,,0.00,Wunderground v.1.13,2013-03-09 17:30:00,
2013-03-09 12:35:00,51.1,26.3,30.25,WNW,294,2.0,19.0,38,0.00,,,0.00,Wunderground v.1.13,2013-03-09 17:35:00,
2013-03-09 12:40:00,51.7,26.2,30.25,NNW,329,1.0,19.0,37,0.00,,,0.00,Wunderground v.1.13,2013-03-09 17:40:00,
2013-03-09 12:50:00,52.5,27.6,30.25,NNW,335,2.0,19.0,38,0.00,,,0.00,Wunderground v.1.13,2013-03-09 17:50:00,
2013-03-09 12:55:00,53.2,28.2,30.25,East,93,1.0,1.0,38,0.00,,,0.00,Wunderground v.1.13,2013-03-09 17:55:00,
2013-03-09 13:00:00,53.2,27.6,30.24,ENE,58,2.0,2.0,37,0.00,,,0.00,Wunderground v.1.13,2013-03-09 18:00:00,
2013-03-09 13:05:00,53.2,26.9,30.24,NNW,337,2.0,19.0,36,0.00,,,0.00,Wunderground v.1.13,2013-03-09 18:05:00,
2013-03-09 13:10:00,53.1,26.8,30.24,NNW,333,3.0,19.0,36,0.00,,,0.00,Wunderground v.1.13,2013-03-09 18:10:00,
2013-03-09 13:15:00,53.1,26.8,30.22,NNW,339,3.0,19.0,36,0.00,,,0.00,Wunderground v.1.13,2013-03-09 18:15:00,
2013-03-09 13:25:00,54.2,27.8,30.22,ESE,117,2.0,2.0,36,0.00,,,0.00,Wunderground v.1.13,2013-03-09 18:25:00,
2013-03-09 13:30:00,54.7,27.6,30.22,NE,44,1.0,19.0,35,0.00,,,0.00,Wunderground v.1.13,2013-03-09 18:30:00,
2013-03-09 13:35:00,55.1,27.9,30.22,East,100,2.0,2.0,35,0.00,,,0.00,Wunderground v.1.13,2013-03-09 18:35:00,
2013-03-09 13:40:00,55.7,27.0,30.22,NE,52,1.0,1.0,33,0.00,,,0.00,Wunderground v.1.13,2013-03-09 18:40:00,
2013-03-09 13:45:00,56.3,28.3,30.22,ESE,110,1.0,19.0,34,0.00,,,0.00,Wunderground v.1.13,2013-03-09 18:45:00,
2013-03-09 13:55:00,56.5,27.7,30.22,NW,320,2.0,19.0,33,0.00,,,0.00,Wunderground v.1.13,2013-03-09 18:55:00,
2013-03-09 14:00:00,56.3,27.5,30.19,NNW,342,3.0,19.0,33,0.00,,,0.00,Wunderground v.1.13,2013-03-09 19:00:00,
2013-03-09 14:05:00,55.9,27.9,30.19,North,359,4.0,4.0,34,0.00,,,0.00,Wunderground v.1.13,2013-03-09 19:05:00,
2013-03-09 14:10:00,56.2,28.2,30.19,East,88,3.0,3.0,34,0.00,,,0.00,Wunderground v.1.13,2013-03-09 19:10:00,
2013-03-09 14:15:00,56.6,27.8,30.19,North,11,1.0,19.0,33,0.00,,,0.00,Wunderground v.1.13,2013-03-09 19:15:00,
2013-03-09 14:20:00,57.0,28.1,30.19,North,0,1.0,19.0,33,0.00,,,0.00,Wunderground v.1.13,2013-03-09 19:20:00,
2013-03-09 14:25:00,56.6,27.8,30.19,North,0,3.0,3.0,33,0.00,,,0.00,Wunderground v.1.13,2013-03-09 19:25:00,
2013-03-09 14:30:00,56.6,28.5,30.18,North,0,4.0,19.0,34,0.00,,,0.00,Wunderground v.1.13,2013-03-09 19:30:00,
2013-03-09 14:35:00,56.6,28.5,30.18,NNE,30,3.0,19.0,34,0.00,,,0.00,Wunderground v.1.13,2013-03-09 19:35:00,
2013-03-09 14:40:00,56.9,28.8,30.18,NNE,32,2.0,2.0,34,0.00,,,0.00,Wunderground v.1.13,2013-03-09 19:40:00,
2013-03-09 14:45:00,57.3,27.7,30.17,ESE,117,1.0,19.0,32,0.00,,,0.00,Wunderground v.1.13,2013-03-09 19:45:00,
2013-03-09 14:50:00,58.0,26.7,30.17,ESE,102,1.0,19.0,30,0.00,,,0.00,Wunderground v.1.13,2013-03-09 19:50:00,
2013-03-09 15:00:00,58.7,26.5,30.16,ENE,71,3.0,3.0,29,0.00,,,0.00,Wunderground v.1.13,2013-03-09 20:00:00,
2013-03-09 15:05:00,58.9,26.7,30.16,ENE,72,2.0,19.0,29,0.00,,,0.00,Wunderground v.1.13,2013-03-09 20:05:00,
2013-03-09 15:10:00,59.2,26.9,30.16,NNE,13,2.0,19.0,29,0.00,,,0.00,Wunderground v.1.13,2013-03-09 20:10:00,
2013-03-09 15:15:00,59.2,26.9,30.15,NNE,27,2.0,19.0,29,0.00,,,0.00,Wunderground v.1.13,2013-03-09 20:15:00,
2013-03-09 15:20:00,59.2,26.9,30.15,North,1,2.0,2.0,29,0.00,,,0.00,Wunderground v.1.13,2013-03-09 20:20:00,
2013-03-09 15:30:00,59.8,27.4,30.14,North,0,2.0,19.0,29,0.00,,,0.00,Wunderground v.1.13,2013-03-09 20:30:00,
2013-03-09 15:35:00,59.5,27.2,30.14,ESE,107,2.0,2.0,29,0.00,,,0.00,Wunderground v.1.13,2013-03-09 20:35:00,
2013-03-09 15:40:00,59.6,27.3,30.14,NNW,343,1.0,19.0,29,0.00,,,0.00,Wunderground v.1.13,2013-03-09 20:40:00,
2013-03-09 15:45:00,59.6,27.3,30.14,NNE,16,1.0,19.0,29,0.00,,,0.00,Wunderground v.1.13,2013-03-09 20:45:00,
2013-03-09 15:50:00,59.6,27.3,30.14,ENE,78,1.0,1.0,29,0.00,,,0.00,Wunderground v.1.13,2013-03-09 20:50:00,
2013-03-09 15:55:00,59.9,26.7,30.14,ENE,72,1.0,19.0,28,0.00,,,0.00,Wunderground v.1.13,2013-03-09 20:55:00,
2013-03-09 16:05:00,60.4,26.2,30.13,ESE,104,2.0,19.0,27,0.00,,,0.00,Wunderground v.1.13,2013-03-09 21:05:00,
2013-03-09 16:10:00,60.5,27.2,30.13,ESE,106,2.0,19.0,28,0.00,,,0.00,Wunderground v.1.13,2013-03-09 21:10:00,
2013-03-09 16:15:00,60.9,27.5,30.13,NNE,25,2.0,19.0,28,0.00,,,0.00,Wunderground v.1.13,2013-03-09 21:15:00,
2013-03-09 16:20:00,60.9,27.5,30.13,North,0,2.0,19.0,28,0.00,,,0.00,Wunderground v.1.13,2013-03-09 21:20:00,
2013-03-09 16:25:00,61.0,27.6,30.13,NE,49,2.0,2.0,28,0.00,,,0.00,Wunderground v.1.13,2013-03-09 21:25:00,
2013-03-09 16:35:00,61.6,28.1,30.13,ESE,116,1.0,19.0,28,0.00,,,0.00,Wunderground v.1.13,2013-03-09 21:35:00,
2013-03-09 16:40:00,61.5,27.2,30.13,North,359,2.0,2.0,27,0.00,,,0.00,Wunderground v.1.13,2013-03-09 21:40:00,
2013-03-09 16:45:00,61.6,27.3,30.12,ENE,64,3.0,3.0,27,0.00,,,0.00,Wunderground v.1.13,2013-03-09 21:45:00,
2013-03-09 16:50:00,61.8,28.3,30.12,ENE,58,2.0,19.0,28,0.00,,,0.00,Wunderground v.1.13,2013-03-09 21:50:00,
2013-03-09 16:55:00,62.0,28.5,30.12,NNE,13,1.0,19.0,28,0.00,,,0.00,Wunderground v.1.13,2013-03-09 21:55:00,
2013-03-09 17:00:00,62.0,28.5,30.11,East,82,1.0,19.0,28,0.00,,,0.00,Wunderground v.1.13,2013-03-09 22:00:00,
2013-03-09 17:10:00,62.0,27.6,30.11,NNE,17,1.0,19.0,27,0.00,,,0.00,Wunderground v.1.13,2013-03-09 22:10:00,
2013-03-09 17:15:00,61.6,26.3,30.11,NNE,27,2.0,19.0,26,0.00,,,0.00,Wunderground v.1.13,2013-03-09 22:15:00,
2013-03-09 17:20:00,61.6,26.3,30.11,North,352,2.0,19.0,26,0.00,,,0.00,Wunderground v.1.13,2013-03-09 22:20:00,
2013-03-09 17:25:00,61.5,27.2,30.11,NE,34,1.0,19.0,27,0.00,,,0.00,Wunderground v.1.13,2013-03-09 22:25:00,
2013-03-09 17:30:00,61.5,27.2,30.11,ESE,116,1.0,19.0,27,0.00,,,0.00,Wunderground v.1.13,2013-03-09 22:30:00,
2013-03-09 17:35:00,61.5,27.2,30.11,NE,38,1.0,1.0,27,0.00,,,0.00,Wunderground v.1.13,2013-03-09 22:35:00,
2013-03-09 17:40:00,61.3,27.0,30.11,East,96,2.0,2.0,27,0.00,,,0.00,Wunderground v.1.13,2013-03-09 22:40:00,
2013-03-09 17:45:00,61.3,27.0,30.11,NE,45,2.0,2.0,27,0.00,,,0.00,Wunderground v.1.13,2013-03-09 22:45:00,
2013-03-09 17:55:00,61.0,27.6,30.11,NE,52,2.0,2.0,28,0.00,,,0.00,Wunderground v.1.13,2013-03-09 22:55:00,
2013-03-09 18:00:00,61.0,26.7,30.11,East,83,1.0,19.0,27,0.00,,,0.00,Wunderground v.1.13,2013-03-09 23:00:00,
2013-03-09 18:05:00,61.0,27.6,30.11,NE,44,1.0,19.0,28,0.00,,,0.00,Wunderground v.1.13,2013-03-09 23:05:00,
2013-03-09 18:15:00,61.0,26.7,30.11,ENE,66,0.0,19.0,27,0.00,,,0.00,Wunderground v.1.13,2013-03-09 23:15:00,
2013-03-09 18:20:00,60.9,27.5,30.11,ENE,78,0.0,19.0,28,0.00,,,0.00,Wunderground v.1.13,2013-03-09 23:20:00,
2013-03-09 18:25:00,60.9,27.5,30.11,East,93,1.0,1.0,28,0.00,,,0.00,Wunderground v.1.13,2013-03-09 23:25:00,
2013-03-09 18:30:00,60.7,27.4,30.11,NNE,28,1.0,1.0,28,0.00,,,0.00,Wunderground v.1.13,2013-03-09 23:30:00,
2013-03-09 18:35:00,60.5,27.2,30.11,NE,35,1.0,1.0,28,0.00,,,0.00,Wunderground v.1.13,2013-03-09 23:35:00,
2013-03-09 18:40:00,60.4,27.1,30.11,NE,37,0.0,19.0,28,0.00,,,0.00,Wunderground v.1.13,2013-03-09 23:40:00,
2013-03-09 18:45:00,60.2,27.8,30.11,NE,37,0.0,19.0,29,0.00,,,0.00,Wunderground v.1.13,2013-03-09 23:45:00,
2013-03-09 18:50:00,59.9,28.4,30.11,NNE,31,1.0,19.0,30,0.00,,,0.00,Wunderground v.1.13,2013-03-09 23:50:00,
2013-03-09 18:55:00,59.6,28.1,30.11,NNE,31,1.0,1.0,30,0.00,,,0.00,Wunderground v.1.13,2013-03-09 23:55:00,
2013-03-09 19:00:00,59.5,28.8,30.11,North,10,1.0,1.0,31,0.00,,,0.00,Wunderground v.1.13,2013-03-10 00:00:00,
2013-03-09 19:05:00,59.5,28.0,30.11,NNE,32,0.0,19.0,30,0.00,,,0.00,Wunderground v.1.13,2013-03-10 00:05:00,
2013-03-09 19:15:00,59.2,27.7,30.11,NNE,32,0.0,19.0,30,0.00,,,0.00,Wunderground v.1.13,2013-03-10 00:15:00,
2013-03-09 19:20:00,59.2,27.7,30.11,NE,34,1.0,19.0,30,0.00,,,0.00,Wunderground v.1.13,2013-03-10 00:20:00,
2013-03-09 19:25:00,59.3,27.8,30.11,NE,34,1.0,19.0,30,0.00,,,0.00,Wunderground v.1.13,2013-03-10 00:25:00,
2013-03-09 19:30:00,59.3,27.8,30.10,NE,34,1.0,1.0,30,0.00,,,0.00,Wunderground v.1.13,2013-03-10 00:30:00,
2013-03-09 19:35:00,59.3,27.8,30.10,NE,34,1.0,19.0,30,0.00,,,0.00,Wunderground v.1.13,2013-03-10 00:35:00,
2013-03-09 19:40:00,59.3,27.8,30.10,NE,34,1.0,1.0,30,0.00,,,0.00,Wunderground v.1.13,2013-03-10 00:40:00,
2013-03-09 19:50:00,58.9,27.5,30.09,NE,34,1.0,19.0,30,0.00,,,0.00,Wunderground v.1.13,2013-03-10 00:50:00,
2013-03-09 19:55:00,58.7,28.1,30.09,NE,34,1.0,1.0,31,0.00,,,0.00,Wunderground v.1.13,2013-03-10 00:55:00,
2013-03-09 20:00:00,58.4,27.9,30.09,NE,34,0.0,19.0,31,0.00,,,0.00,Wunderground v.1.13,2013-03-10 01:00:00,
2013-03-09 20:05:00,58.3,27.8,30.09,NE,41,0.0,19.0,31,0.00,,,0.00,Wunderground v.1.13,2013-03-10 01:05:00,
2013-03-09 20:10:00,58.3,27.8,30.09,NE,41,0.0,19.0,31,0.00,,,0.00,Wunderground v.1.13,2013-03-10 01:10:00,
2013-03-09 20:20:00,58.0,27.5,30.09,NE,41,0.0,19.0,31,0.00,,,0.00,Wunderground v.1.13,2013-03-10 01:20:00,
2013-03-09 20:25:00,58.0,26.7,30.09,NE,41,0.0,19.0,30,0.00,,,0.00,Wunderground v.1.13,2013-03-10 01:25:00,
2013-03-09 20:30:00,58.0,27.5,30.09,NE,41,0.0,19.0,31,0.00,,,0.00,Wunderground v.1.13,2013-03-10 01:30:00,
2013-03-09 20:35:00,57.8,31.0,30.09,NE,41,0.0,19.0,36,0.00,,,0.00,Wunderground v.1.13,2013-03-10 01:35:00,
2013-03-09 20:40:00,57.5,31.4,30.09,NE,41,0.0,19.0,37,0.00,,,0.00,Wunderground v.1.13,2013-03-10 01:40:00,
2013-03-09 20:45:00,57.2,29.8,30.09,NE,41,0.0,19.0,35,0.00,,,0.00,Wunderground v.1.13,2013-03-10 01:45:00,
2013-03-09 20:55:00,56.7,28.6,30.09,NE,41,0.0,19.0,34,0.00,,,0.00,Wunderground v.1.13,2013-03-10 01:55:00,
2013-03-09 21:00:00,56.7,29.3,30.09,NE,41,0.0,19.0,35,0.00,,,0.00,Wunderground v.1.13,2013-03-10 02:00:00,
2013-03-09 21:05:00,56.6,29.2,30.09,NE,41,0.0,19.0,35,0.00,,,0.00,Wunderground v.1.13,2013-03-10 02:05:00,
2013-03-09 21:10:00,56.5,29.1,30.09,NE,41,0.0,19.0,35,0.00,,,0.00,Wunderground v.1.13,2013-03-10 02:10:00,
2013-03-09 21:15:00,56.5,29.8,30.08,NE,41,0.0,19.0,36,0.00,,,0.00,Wunderground v.1.13,2013-03-10 02:15:00,
2013-03-09 21:20:00,56.2,32.2,30.08,NE,41,0.0,19.0,40,0.00,,,0.00,Wunderground v.1.13,2013-03-10 02:20:00,
2013-03-09 21:25:00,55.6,32.2,30.08,NE,41,0.0,19.0,41,0.00,,,0.00,Wunderground v.1.13,2013-03-10 02:25:00,
2013-03-09 21:30:00,55.1,31.8,30.08,NW,313,1.0,1.0,41,0.00,,,0.00,Wunderground v.1.13,2013-03-10 02:30:00,
2013-03-09 21:35:00,54.8,30.9,30.08,NW,313,1.0,1.0,40,0.00,,,0.00,Wunderground v.1.13,2013-03-10 02:35:00,
2013-03-09 21:40:00,54.7,33.2,30.08,NW,313,0.0,19.0,44,0.00,,,0.00,Wunderground v.1.13,2013-03-10 02:40:00,
2013-03-09 21:45:00,54.5,31.3,30.07,NW,313,0.0,19.0,41,0.00,,,0.00,Wunderground v.1.13,2013-03-10 02:45:00,
2013-03-09 21:50:00,54.5,33.0,30.07,NW,313,0.0,19.0,44,0.00,,,0.00,Wunderground v.1.13,2013-03-10 02:50:00,
2013-03-09 22:00:00,54.1,32.6,30.07,WNW,282,1.0,19.0,44,0.00,,,0.00,Wunderground v.1.13,2013-03-10 03:00:00,
2013-03-09 22:05:00,53.8,33.5,30.07,West,271,1.0,1.0,46,0.00,,,0.00,Wunderground v.1.13,2013-03-10 03:05:00,
2013-03-09 22:10:00,53.6,31.6,30.07,West,272,1.0,1.0,43,0.00,,,0.00,Wunderground v.1.13,2013-03-10 03:10:00,
2013-03-09 22:15:00,53.8,32.4,30.07,West,271,0.0,19.0,44,0.00,,,0.00,Wunderground v.1.13,2013-03-10 03:15:00,
2013-03-09 22:20:00,53.8,32.4,30.07,West,271,0.0,19.0,44,0.00,,,0.00,Wunderground v.1.13,2013-03-10 03:20:00,
2013-03-09 22:25:00,53.8,32.4,30.07,West,271,0.0,19.0,44,0.00,,,0.00,Wunderground v.1.13,2013-03-10 03:25:00,
2013-03-09 22:30:00,53.8,32.9,30.06,West,271,0.0,19.0,45,0.00,,,0.00,Wunderground v.1.13,2013-03-10 03:30:00,
2013-03-09 22:35:00,53.8,32.4,30.06,West,271,0.0,19.0,44,0.00,,,0.00,Wunderground v.1.13,2013-03-10 03:35:00,
2013-03-09 22:40:00,53.6,32.8,30.06,West,271,0.0,19.0,45,0.00,,,0.00,Wunderground v.1.13,2013-03-10 03:40:00,
2013-03-09 22:45:00,53.5,32.1,30.05,West,271,0.0,19.0,44,0.00,,,0.00,Wunderground v.1.13,2013-03-10 03:45:00,
2013-03-09 22:50:00,53.2,33.5,30.05,West,271,0.0,19.0,47,0.00,,,0.00,Wunderground v.1.13,2013-03-10 03:50:00,
2013-03-09 23:00:00,52.6,33.5,30.05,West,267,0.0,19.0,48,0.00,,,0.00,Wunderground v.1.13,2013-03-10 04:00:00,
2013-03-09 23:05:00,52.3,33.7,30.05,West,267,0.0,19.0,49,0.00,,,0.00,Wunderground v.1.13,2013-03-10 04:05:00,
2013-03-09 23:10:00,52.0,33.4,30.05,West,267,0.0,19.0,49,0.00,,,0.00,Wunderground v.1.13,2013-03-10 04:10:00,
2013-03-09 23:15:00,51.9,32.8,30.04,West,267,0.0,19.0,48,0.00,,,0.00,Wunderground v.1.13,2013-03-10 04:15:00,
2013-03-09 23:20:00,51.9,32.3,30.04,West,267,0.0,19.0,47,0.00,,,0.00,Wunderground v.1.13,2013-03-10 04:20:00,
2013-03-09 23:25:00,51.9,32.3,30.04,West,267,0.0,19.0,47,0.00,,,0.00,Wunderground v.1.13,2013-03-10 04:25:00,
2013-03-09 23:35:00,51.9,32.3,30.04,West,267,0.0,19.0,47,0.00,,,0.00,Wunderground v.1.13,2013-03-10 04:35:00,
2013-03-09 23:40:00,51.9,32.3,30.04,West,267,0.0,19.0,47,0.00,,,0.00,Wunderground v.1.13,2013-03-10 04:40:00,
2013-03-09 23:45:00,51.9,31.7,30.05,West,267,0.0,19.0,46,0.00,,,0.00,Wunderground v.1.13,2013-03-10 04:45:00,
2013-03-09 23:50:00,52.0,31.3,30.05,South,172,0.0,19.0,45,0.00,,,0.00,Wunderground v.1.13,2013-03-10 04:50:00,
2013-03-09 23:55:00,52.3,30.4,30.05,SE,126,0.0,19.0,43,0.00,,,0.00,Wunderground v.1.13,2013-03-10 04:55:00,